When you browse on this site, cookies collect data to enhance your experience and personalize the content and advertising you see.
Visit our Privacy Policy to learn more. By continuing to use the site, you agree to this use of cookies and data.
  • In France
  • List of Countries
  • For 7 days
  • Water Temperature
  • Satellite Maps
  • Weather Map
  • Weather Widgets
  • user-avatar
    Login

    Hourly Weather Kiustendil

    Today, 22 May, Wednesday

    Time Temperature Precipitation Wind Pressure Humidity
    00:00 +3°C° 0 mm 1 mps 622 mmHg 87%
    01:00 +3°C° 0 mm 1 mps 622 mmHg 87%
    02:00 +3°C° 0 mm 1 mps 622 mmHg 87%
    03:00 +3°C° 0 mm 1 mps 622 mmHg 87%
    04:00 +3°C° 0 mm 1 mps 622 mmHg 87%
    05:00 +5°C° 0 mm 1 mps 623 mmHg 81%
    06:00 +6°C° 0 mm 0 mps 624 mmHg 75%
    07:00 +8°C° 0 mm 0 mps 625 mmHg 70%
    08:00 +11°C° 0 mm 1 mps 625 mmHg 63%
    09:00 +13°C° 0 mm 1 mps 626 mmHg 57%
    10:00 +14°C° 0 mm 1 mps 626 mmHg 50%
    11:00 +15°C° 0.2 mm 2 mps 626 mmHg 50%
    12:00 +15°C° 0.2 mm 2 mps 626 mmHg 50%
    13:00 +15°C° 0.2 mm 2 mps 626 mmHg 49%
    14:00 +15°C° 0.2 mm 2 mps 625 mmHg 51%
    15:00 +15°C° 0.2 mm 2 mps 625 mmHg 53%
    16:00 +15°C° 0.2 mm 2 mps 625 mmHg 55%
    17:00 +13°C° 0.4 mm 2 mps 624 mmHg 63%
    18:00 +10°C° 0.4 mm 1 mps 623 mmHg 70%
    19:00 +8°C° 0.4 mm 1 mps 623 mmHg 77%
    20:00 +8°C° 0 mm 1 mps 623 mmHg 79%
    21:00 +7°C° 0 mm 1 mps 623 mmHg 82%
    22:00 +6°C° 0 mm 1 mps 623 mmHg 84%
    23:00 +6°C° 0 mm 1 mps 623 mmHg 84%

    Tomorrow, 23 May, Thursday

    Time Temperature Precipitation Wind Pressure Humidity
    00:00 +5°C° 0 mm 1 mps 623 mmHg 85%
    01:00 +5°C° 0 mm 1 mps 622 mmHg 85%
    02:00 +5°C° 0 mm 1 mps 622 mmHg 85%
    03:00 +4°C° 0 mm 1 mps 622 mmHg 86%
    04:00 +4°C° 0 mm 1 mps 622 mmHg 86%
    05:00 +6°C° 0 mm 1 mps 623 mmHg 82%
    06:00 +8°C° 0 mm 1 mps 624 mmHg 77%
    07:00 +10°C° 0 mm 1 mps 624 mmHg 73%
    08:00 +10°C° 0.2 mm 2 mps 625 mmHg 70%
    09:00 +12°C° 0.2 mm 2 mps 625 mmHg 66%
    10:00 +13°C° 0.2 mm 2 mps 625 mmHg 63%
    11:00 +13°C° 0.7 mm 2 mps 625 mmHg 62%
    12:00 +14°C° 0.7 mm 2 mps 625 mmHg 60%
    13:00 +15°C° 0.7 mm 1 mps 625 mmHg 58%
    14:00 +14°C° 0.7 mm 1 mps 625 mmHg 59%
    15:00 +14°C° 0.7 mm 1 mps 624 mmHg 60%
    16:00 +14°C° 0.7 mm 1 mps 624 mmHg 61%
    17:00 +12°C° 0.8 mm 1 mps 623 mmHg 69%
    18:00 +10°C° 0.8 mm 1 mps 622 mmHg 76%
    19:00 +8°C° 0.8 mm 1 mps 622 mmHg 83%
    20:00 +6°C° 0.3 mm 2 mps 622 mmHg 85%
    21:00 +6°C° 0.3 mm 2 mps 622 mmHg 88%
    22:00 +5°C° 0.3 mm 2 mps 622 mmHg 90%
    23:00 +5°C° 0 mm 2 mps 622 mmHg 91%

    Day after tomorrow, 24 May, Friday

    Time Temperature Precipitation Wind Pressure Humidity
    00:00 +5°C° 0 mm 2 mps 621 mmHg 93%
    01:00 +4°C° 0 mm 2 mps 621 mmHg 94%
    02:00 +4°C° 0 mm 2 mps 621 mmHg 94%
    03:00 +4°C° 0 mm 1 mps 620 mmHg 95%
    04:00 +4°C° 0 mm 1 mps 620 mmHg 95%
    05:00 +4°C° 0 mm 2 mps 621 mmHg 90%
    06:00 +6°C° 0 mm 2 mps 621 mmHg 85%
    07:00 +7°C° 0 mm 2 mps 622 mmHg 80%
    08:00 +8°C° 0.1 mm 2 mps 622 mmHg 75%
    09:00 +9°C° 0.1 mm 2 mps 623 mmHg 69%
    10:00 +10°C° 0.1 mm 3 mps 623 mmHg 63%
    11:00 +12°C° 0.4 mm 2 mps 623 mmHg 62%
    12:00 +12°C° 0.4 mm 2 mps 623 mmHg 61%
    13:00 +13°C° 0.4 mm 2 mps 623 mmHg 61%
    14:00 +12°C° 0.5 mm 3 mps 623 mmHg 62%
    15:00 +11°C° 0.5 mm 3 mps 622 mmHg 64%
    16:00 +11°C° 0.5 mm 3 mps 622 mmHg 66%
    17:00 +9°C° 0.2 mm 2 mps 622 mmHg 73%
    18:00 +7°C° 0.2 mm 2 mps 621 mmHg 80%
    19:00 +5°C° 0.2 mm 2 mps 620 mmHg 87%
    20:00 +4°C° 0 mm 2 mps 620 mmHg 89%
    21:00 +4°C° 0 mm 2 mps 620 mmHg 91%
    22:00 +4°C° 0 mm 1 mps 620 mmHg 93%
    23:00 +4°C° 0 mm 1 mps 620 mmHg 93%

    25 May, Saturday

    Time Temperature Precipitation Wind Pressure Humidity
    00:00 +3°C° 0 mm 1 mps 620 mmHg 93%
    01:00 +3°C° 0 mm 1 mps 620 mmHg 94%
    02:00 +3°C° 0 mm 1 mps 620 mmHg 94%
    03:00 +3°C° 0 mm 1 mps 620 mmHg 94%
    04:00 +3°C° 0 mm 1 mps 620 mmHg 94%
    05:00 +5°C° 0 mm 1 mps 621 mmHg 88%
    06:00 +7°C° 0 mm 1 mps 622 mmHg 82%
    07:00 +9°C° 0 mm 1 mps 623 mmHg 76%
    08:00 +9°C° 0 mm 2 mps 624 mmHg 68%
    09:00 +12°C° 0 mm 2 mps 625 mmHg 61%
    10:00 +13°C° 0 mm 2 mps 625 mmHg 53%
    11:00 +13°C° 0 mm 3 mps 625 mmHg 51%
    12:00 +14°C° 0 mm 3 mps 626 mmHg 49%
    13:00 +16°C° 0 mm 3 mps 626 mmHg 47%
    14:00 +14°C° 0 mm 3 mps 626 mmHg 48%
    15:00 +14°C° 0 mm 3 mps 625 mmHg 50%
    16:00 +14°C° 0 mm 3 mps 625 mmHg 51%
    17:00 +13°C° 0 mm 2 mps 625 mmHg 60%
    18:00 +10°C° 0 mm 1 mps 624 mmHg 69%
    19:00 +8°C° 0 mm 1 mps 623 mmHg 78%
    20:00 +7°C° 0 mm 1 mps 623 mmHg 80%
    21:00 +7°C° 0 mm 1 mps 623 mmHg 82%
    22:00 +6°C° 0 mm 1 mps 623 mmHg 84%
    23:00 +6°C° 0 mm 1 mps 623 mmHg 84%

    26 May, Sunday

    Time Temperature Precipitation Wind Pressure Humidity
    00:00 +5°C° 0 mm 1 mps 623 mmHg 85%
    01:00 +5°C° 0 mm 1 mps 623 mmHg 85%
    02:00 +5°C° 0 mm 1 mps 623 mmHg 85%
    03:00 +4°C° 0 mm 0 mps 623 mmHg 85%
    04:00 +3°C° 0 mm 0 mps 623 mmHg 85%
    05:00 +6°C° 0 mm 0 mps 624 mmHg 78%
    06:00 +8°C° 0 mm 0 mps 625 mmHg 72%
    07:00 +10°C° 0 mm 0 mps 626 mmHg 65%
    08:00 +12°C° 0 mm 0 mps 626 mmHg 60%
    09:00 +15°C° 0 mm 1 mps 627 mmHg 54%
    10:00 +16°C° 0 mm 1 mps 627 mmHg 49%
    11:00 +17°C° 0 mm 2 mps 627 mmHg 48%
    12:00 +17°C° 0 mm 2 mps 627 mmHg 47%
    13:00 +18°C° 0 mm 3 mps 627 mmHg 46%
    14:00 +18°C° 0.1 mm 2 mps 627 mmHg 48%
    15:00 +17°C° 0.1 mm 2 mps 627 mmHg 49%
    16:00 +17°C° 0.1 mm 2 mps 626 mmHg 51%
    17:00 +15°C° 0.1 mm 1 mps 626 mmHg 59%
    18:00 +13°C° 0.1 mm 1 mps 625 mmHg 66%
    19:00 +11°C° 0.1 mm 1 mps 624 mmHg 73%
    20:00 +10°C° 0 mm 1 mps 624 mmHg 76%
    21:00 +9°C° 0 mm 1 mps 624 mmHg 79%
    22:00 +9°C° 0 mm 1 mps 624 mmHg 81%
    23:00 +8°C° 0 mm 1 mps 624 mmHg 83%

    27 May, Monday

    Time Temperature Precipitation Wind Pressure Humidity
    00:00 +8°C° 0 mm 1 mps 624 mmHg 84%
    01:00 +7°C° 0 mm 1 mps 624 mmHg 85%
    02:00 +8°C° 0 mm 1 mps 624 mmHg 85%
    03:00 +8°C° 0 mm 1 mps 624 mmHg 84%
    04:00 +7°C° 0 mm 0 mps 624 mmHg 83%
    05:00 +9°C° 0.1 mm 1 mps 625 mmHg 82%
    06:00 +10°C° 0.1 mm 1 mps 625 mmHg 80%
    07:00 +11°C° 0.1 mm 1 mps 626 mmHg 78%
    08:00 +13°C° 0.1 mm 1 mps 627 mmHg 71%
    09:00 +14°C° 0.1 mm 0 mps 627 mmHg 64%
    10:00 +16°C° 0.1 mm 0 mps 628 mmHg 57%
    11:00 +18°C° 0.2 mm 1 mps 628 mmHg 56%
    12:00 +19°C° 0.2 mm 1 mps 628 mmHg 54%
    13:00 +19°C° 0.2 mm 1 mps 628 mmHg 52%
    14:00 +19°C° 0.1 mm 1 mps 627 mmHg 51%
    15:00 +19°C° 0.1 mm 1 mps 627 mmHg 50%
    16:00 +19°C° 0.1 mm 1 mps 627 mmHg 50%
    17:00 +16°C° 0 mm 1 mps 627 mmHg 56%
    18:00 +14°C° 0 mm 1 mps 626 mmHg 62%
    19:00 +12°C° 0 mm 1 mps 625 mmHg 68%
    20:00 +11°C° 0 mm 1 mps 625 mmHg 70%
    21:00 +10°C° 0 mm 1 mps 625 mmHg 72%
    22:00 +10°C° 0 mm 1 mps 625 mmHg 74%
    23:00 +9°C° 0 mm 1 mps 625 mmHg 76%
    Show more